User: anonymous   Login
Location: Bremen
(53.0793°N, 8.8017°E)
Time: 21:08:33
(UTC+02:00)
Language:

CAS-4A - Orbit

View from above orbital plane
View from above orbital plane
View from above satellite
View from above satellite

Ground track
Ground track

The orbit data is extracted from the following two-line orbital elements,

1 42761U 17034D   24141.52579918  .00027046  00000-0  99332-3 0  9991
2 42761  43.0240  21.1506 0010788 182.8628 177.2164 15.27379600383180
Epoch (UTC): 20 May 2024 12:37:09
Eccentricity: 0.0010788
inclination: 43.0240°
perigee height: 476 km
apogee height: 491 km
right ascension of ascending node: 21.1506°
argument of perigee: 182.8628°
revolutions per day: 15.27379600
mean anomaly at epoch: 177.2164°
orbit number at epoch: 38318

The dashed part of the orbit path shows where the satellite is in the earth's shadow,  

DLR